Weather History for Olean, NY

Change the Weather History Date:

Monday, August 4, 2014

  Actual Average (KBFD) Record (KBFD)
Temperature  
Mean Temperature 66 °F 65 °F  
Max Temperature 77 °F 77 °F 87 °F (1988)
Min Temperature 55 °F 53 °F 40 °F (1966)
Degree Days  
Heating Degree Days 0 0  
Month to date heating degree days 0  
Since 1 June heating degree days 209  
Since 1 July heating degree days 64  
Cooling Degree Days 1 2  
Month to date cooling degree days 8  
Year to date cooling degree days 132  
Since 1 June cooling degree days 122  
Growing Degree Days 16 (Base 50)    
Moisture  
Dew Point 60 °F    
Average Humidity 87    
Maximum Humidity 100    
Minimum Humidity 53    
Precipitation  
Precipitation 0.00 in 0.13 in 1.36 in (1960)
Month to date precipitation 0.55  
Year to date precipitation 26.39  
Sea Level Pressure  
Sea Level Pressure 30.14 in    
Wind  
Wind Speed 0 mph (WSW)    
Max Wind Speed 7 mph    
Max Gust Speed -    
Visibility 6 miles    
Events Fog    
T = Trace of Precipitation, MM = Missing Value Source: NWS Daily Summary

Daily Weather History Graph

Daily Weather History Graph

Search for Another Location

Airport:

Trip Planner

Search our weather history database for the weather conditions in past years. The results will help you decide how hot, cold, wet, or windy it might be!

Date:

Astronomy

Aug. 04, 2014 Rise Set
Actual Time 6:09 AM EDT 8:29 PM EDT
Civil Twilight 5:37 AM EDT 9:00 PM EDT
Nautical Twilight 4:59 AM EDT 9:39 PM EDT
Astronomical Twilight 4:15 AM EDT 10:21 PM EDT
Moon 2:38 PM EDT (8/4) 12:16 AM EDT (8/4)
Length of Visible Light 15h 22m
Length of Day
14h 19m
First Quarter, 57% of the Moon is Illuminated
Aug 4
First Quarter
Aug 10
Full
Aug 17
Last Quarter
Aug 25
New
Sep 2
First Quarter

Hourly Weather History & Observations

Time (EDT) Temp. Dew Point Humidity Pressure Visibility Wind Dir Wind Speed Gust Speed Precip Events Conditions
12:15 AM 59.0 °F 59.0 °F 100% 30.13 in 0.8 mi Calm Calm - N/A   Overcast
12:35 AM 59.0 °F 59.0 °F 100% 30.14 in 0.5 mi Calm Calm - N/A Fog Fog
12:55 AM 59.0 °F 59.0 °F 100% 30.14 in 0.8 mi Calm Calm - N/A   Overcast
1:15 AM 59.0 °F 59.0 °F 100% 30.14 in 5.0 mi Calm Calm - N/A   Mostly Cloudy
1:40 AM 59.0 °F 59.0 °F 100% 30.13 in 0.2 mi Calm Calm - N/A Fog Fog
1:55 AM 59.0 °F 59.0 °F 100% 30.13 in 0.2 mi Calm Calm - N/A Fog Fog
2:15 AM 57.2 °F 57.2 °F 100% 30.12 in 0.2 mi Calm Calm - N/A Fog Fog
2:35 AM 57.2 °F 57.2 °F 100% 30.12 in 0.2 mi Calm Calm - N/A Fog Fog
2:55 AM 55.4 °F 55.4 °F 100% 30.11 in 0.5 mi Calm Calm - N/A Fog Fog
3:15 AM 55.4 °F 55.4 °F 100% 30.12 in 0.2 mi Calm Calm - N/A Fog Fog
3:35 AM 55.4 °F 55.4 °F 100% 30.12 in 0.2 mi Calm Calm - N/A Fog Fog
3:55 AM 57.2 °F 57.2 °F 100% 30.12 in 0.2 mi Calm Calm - N/A Fog Fog
4:15 AM 55.4 °F 55.4 °F 100% 30.13 in - Calm Calm - N/A   Overcast
4:35 AM 55.4 °F 55.4 °F 100% 30.13 in - Calm Calm - N/A   Overcast
4:55 AM 55.4 °F 55.4 °F 100% 30.13 in - Calm Calm - N/A   Overcast
5:15 AM 55.4 °F 55.4 °F 100% 30.13 in 0.2 mi Calm Calm - N/A Fog Fog
5:35 AM 55.4 °F 55.4 °F 100% 30.13 in 0.2 mi Calm Calm - N/A Fog Fog
5:55 AM 55.4 °F 55.4 °F 100% 30.14 in 0.2 mi Calm Calm - N/A Fog Fog
6:15 AM 55.4 °F 55.4 °F 100% 30.15 in 0.2 mi Calm Calm - N/A Fog Fog
6:35 AM 55.4 °F 55.4 °F 100% 30.15 in 0.2 mi Calm Calm - N/A Fog Fog
6:55 AM 55.4 °F 55.4 °F 100% 30.15 in 0.2 mi Calm Calm - N/A Fog Fog
7:15 AM 57.2 °F 57.2 °F 100% 30.15 in 0.2 mi Calm Calm - N/A Fog Fog
7:35 AM 57.2 °F 57.2 °F 100% 30.15 in 0.2 mi Calm Calm - N/A Fog Fog
7:55 AM 57.2 °F 57.2 °F 100% 30.15 in 0.2 mi Calm Calm - N/A Fog Fog
8:15 AM 57.2 °F 57.2 °F 100% 30.16 in 0.5 mi Calm Calm - N/A Fog Fog
8:35 AM 59.0 °F 59.0 °F 100% 30.17 in 0.5 mi Calm Calm - N/A Fog Fog
8:55 AM 59.0 °F 59.0 °F 100% 30.17 in 0.2 mi Calm Calm - N/A Fog Fog
9:15 AM 59.0 °F 59.0 °F 100% 30.17 in 7.0 mi Calm Calm - N/A   Mostly Cloudy
9:35 AM 60.8 °F 60.8 °F 100% 30.16 in 7.0 mi Calm Calm - N/A   Mostly Cloudy
9:55 AM 60.8 °F 60.8 °F 100% 30.16 in 10.0 mi Calm Calm - N/A   Mostly Cloudy
10:15 AM 62.6 °F 62.6 °F 100% 30.17 in 10.0 mi Calm Calm - N/A   Mostly Cloudy
10:35 AM 64.4 °F 64.4 °F 100% 30.17 in 10.0 mi Calm Calm - N/A   Scattered Clouds
10:55 AM 64.4 °F 64.4 °F 100% 30.17 in 10.0 mi Calm Calm - N/A   Scattered Clouds
11:15 AM 68.0 °F 68.0 °F 100% 30.18 in 10.0 mi Calm Calm - N/A   Mostly Cloudy
12:00 PM 71.6 °F 66.2 °F 83% 30.17 in 10.0 mi West 3.5 mph - N/A   Scattered Clouds
12:15 PM 71.6 °F 64.4 °F 78% 30.17 in 10.0 mi Calm Calm - N/A   Scattered Clouds
12:35 PM 71.6 °F 62.6 °F 73% 30.17 in 10.0 mi Calm Calm - N/A   Mostly Cloudy
12:55 PM 71.6 °F 62.6 °F 73% 30.16 in 10.0 mi Calm Calm - N/A   Scattered Clouds
1:15 PM 71.6 °F 62.6 °F 73% 30.16 in 10.0 mi Calm Calm - N/A   Clear
1:35 PM 73.4 °F 60.8 °F 65% 30.15 in 10.0 mi Calm Calm - N/A   Clear
1:55 PM 71.6 °F 59.0 °F 64% 30.15 in 10.0 mi NW 3.5 mph - N/A   Scattered Clouds
2:15 PM 71.6 °F 60.8 °F 69% 30.15 in 10.0 mi Calm Calm - N/A   Mostly Cloudy
2:35 PM 73.4 °F 60.8 °F 65% 30.15 in 10.0 mi Calm Calm - N/A   Mostly Cloudy
2:55 PM 73.4 °F 60.8 °F 65% 30.14 in 10.0 mi NW 3.5 mph - N/A   Scattered Clouds
3:15 PM 73.4 °F 60.8 °F 65% 30.14 in 10.0 mi West 3.5 mph - N/A   Mostly Cloudy
3:35 PM 73.4 °F 59.0 °F 61% 30.13 in 10.0 mi Calm Calm - N/A   Mostly Cloudy
3:55 PM 75.2 °F 59.0 °F 57% 30.12 in 10.0 mi WSW 6.9 mph - N/A   Scattered Clouds
4:15 PM 73.4 °F 59.0 °F 61% 30.12 in 10.0 mi SW 3.5 mph - N/A   Scattered Clouds
4:35 PM 75.2 °F 59.0 °F 57% 30.12 in 10.0 mi SW 4.6 mph - N/A   Mostly Cloudy
4:55 PM 75.2 °F 57.2 °F 53% 30.12 in 10.0 mi SW 4.6 mph - N/A   Scattered Clouds
5:15 PM 77.0 °F 59.0 °F 54% 30.12 in 10.0 mi Calm Calm - N/A   Clear
5:35 PM 75.2 °F 59.0 °F 57% 30.12 in 10.0 mi Calm Calm - N/A   Clear
5:55 PM 73.4 °F 59.0 °F 61% 30.11 in 10.0 mi SW 3.5 mph - N/A   Clear
6:15 PM 73.4 °F 60.8 °F 65% 30.12 in 10.0 mi WSW 3.5 mph - N/A   Clear
6:35 PM 73.4 °F 60.8 °F 65% 30.12 in 10.0 mi Calm Calm - N/A   Clear
6:55 PM 73.4 °F 62.6 °F 69% 30.13 in 10.0 mi Calm Calm - N/A   Clear
7:15 PM 71.6 °F 62.6 °F 73% 30.13 in 10.0 mi Calm Calm - N/A   Clear
7:35 PM 71.6 °F 62.6 °F 73% 30.12 in 10.0 mi Calm Calm - N/A   Clear
7:55 PM 69.8 °F 60.8 °F 73% 30.12 in 10.0 mi WSW 3.5 mph - N/A   Clear
8:15 PM 69.8 °F 62.6 °F 78% 30.13 in 10.0 mi SW 3.5 mph - N/A   Clear
8:35 PM 68.0 °F 62.6 °F 83% 30.12 in 10.0 mi NW 3.5 mph - N/A   Scattered Clouds
10:15 PM 64.4 °F 64.4 °F 100% 30.14 in 10.0 mi Calm Calm - N/A   Mostly Cloudy
10:35 PM 64.4 °F 64.4 °F 100% 30.13 in 10.0 mi Calm Calm - N/A   Scattered Clouds
10:55 PM 62.6 °F 62.6 °F 100% 30.13 in 10.0 mi Calm Calm - N/A   Clear
11:15 PM 62.6 °F 62.6 °F 100% 30.13 in 10.0 mi Calm Calm - N/A   Clear
11:35 PM 62.6 °F 62.6 °F 100% 30.13 in 10.0 mi Calm Calm - N/A   Clear
11:55 PM 62.6 °F 62.6 °F 100% 30.13 in 10.0 mi Calm Calm - N/A   Scattered Clouds